Regional Weather Roundup
Issued by NWS

Home | Current Version | Previous Version | Text Only | Print | Product List | Glossary On
Versions: 1 2 3 4 5 6 7 8 9 10 11 12 13 14 15 16 17 18 19 20 21 22 23 24 25 26 27 28 29 30 31 32 33 34 35 36 37 38 39 40 41 42 43 44 45 46 47 48 49 50
000
ASUS43 KDTX 032310
RWRMI
MICHIGAN HOURLY REGIONAL WEATHER ROUNDUP
NATIONAL WEATHER SERVICE DETROIT/PONTIAC MI
600 PM EST TUE MAR 03 2015

NOTE: "FAIR" INDICATES FEW OR NO CLOUDS BELOW 12,000 FEET WITH NO
SIGNIFICANT WEATHER AND/OR OBSTRUCTION TO VISIBILITY.

MIZ047>049-052>055-059>063-066>070-074>076-081>083-040000-
SOUTHEAST LOWER MICHIGAN

CITY           SKY/WX    TMP DP  RH WIND       PRES   REMARKS
ADRIAN         CLOUDY    36  34  92 W16G23    29.63R
ALMA           CLOUDY    32  31  95 W14G21    29.56R
ANN ARBOR      CLOUDY    34  33  96 W14       29.59R FOG
BAD AXE        CLOUDY    30  29  99 SW10G16   29.52S FOG
DETROIT CITY   CLOUDY    36  32  85 SW15      29.58F FOG
DETROIT        CLOUDY    36  34  93 SW17      29.60S FOG
FLINT          CLOUDY    35  30  82 W14       29.56R
GROSSE ILE     CLOUDY    36  34  93 SW13G20   29.59R FOG
HILLSDALE      CLOUDY    36  36  99 W17G29    29.60R
HOWELL         CLOUDY    33  32  95 W18G31    29.56R

CITY           SKY/WX    TMP DP  RH WIND       PRES   REMARKS
JACKSON        CLOUDY    35  31  85 W18G31    29.59R
LAMBERTVILLE   CLOUDY    37  34  87 SW9G24    29.62S FOG
LANSING        CLOUDY    34  29  82 W24G36    29.58R
LAPEER         NOT AVBL
MASON          CLOUDY    34  31  89 W17G31    29.57R
MONROE         CLOUDY    36  34  93 SW18G24   29.59S FOG
MT. CLEMENS    CLOUDY    33  32  96 SW9       29.55S FOG
PONTIAC        CLOUDY    33  31  92 SW14      29.55R FOG
PORT HOPE        N/A     29  26  89 VRB3      29.51S
PORT HURON     CLOUDY    30  28  93 SW6       29.56S FOG
TRI CITIES     CLOUDY    33  29  85 SW14      29.54S FOG
YPSILANTI      CLOUDY    37  32  82 SW15      29.59R HAZE
$$
MIZ043>046-050>051-056>058-064>065-071>073-077>080-040000-
SOUTHWEST LOWER MICHIGAN

CITY           SKY/WX    TMP DP  RH WIND       PRES   REMARKS
BATTLE CREEK   CLOUDY    35  30  82 W17G29    29.62R
BENTON HARBOR  CLOUDY    33  31  92 W15       29.68R
BIG RAPIDS     CLOUDY    31  29  94 W13G21    29.53R
COLDWATER      CLOUDY    35  32  90 W20G29    29.63R
HOLLAND        CLOUDY    34  30  85 W16G24    29.64R
GRAND RAPIDS   CLOUDY    33  28  81 W20G28    29.60R
KALAMAZOO      CLOUDY    35  29  78 W20G26    29.65R
MARSHALL       CLOUDY    33  31  91 W21G31    29.60R
MUSKEGON       CLOUDY    33  28  81 W17G26    29.62R
$$
MIZ016>042-040000-
NORTHERN LOWER MICHIGAN

CITY           SKY/WX    TMP DP  RH WIND       PRES   REMARKS
ALPENA         CLOUDY    25  23  92 SW6       29.50F FOG
BEAVER ISLAND  LGT SNOW  26  23  90 SW7       29.48F
BELLAIRE       LGT SNOW  27  25  94 CALM      29.51S
CADILLAC       LGT SNOW  27  26  93 W12       29.48F
CHARLEVOIX     FLURRIES  26  24  93 SW6       29.52S
FRANKFORT      CLOUDY    29  25  86 W15G21    29.54R
GAYLORD        CLOUDY    23  23 100 SW12      29.46S FOG
GRAYLING       LGT SNOW  26  25  98 SW3       29.49S
HARBOR SPRINGS CLOUDY    25  23  91 CALM      29.49S
HOUGHTON LAKE  CLOUDY    25  23  92 SW7       29.49S FOG
MANISTEE       CLOUDY    28  21  74 W17       29.57R
OSCODA         CLOUDY    26  24  96 SW7       29.51F FOG
PELLSTON       CLOUDY    26  21  81 SW3       29.50S
TRAVERSE CITY  FLURRIES  29  25  85 W9        29.50S
$$
MIZ007>008-015-040000-
EASTERN UPPER MICHIGAN

CITY           SKY/WX    TMP DP  RH WIND       PRES   REMARKS
KINROSS        CLOUDY    25  23  93 S5        29.48S
MACKINAC ISLAN LGT SNOW  24  22  93 CALM      29.49S
NEWBERRY       LGT SNOW  22  20  92 S8        29.46F
S. S. MARIE    LGT SNOW  23  20  88 SE3       29.47F FOG
$$
MIZ004>006-011>014-085-040000-
CENTRAL UPPER MICHIGAN

CITY           SKY/WX    TMP DP  RH WIND       PRES   REMARKS
MANISTIQUE     LGT SNOW  24  23  97 CALM      29.47F
ESCANABA       PTCLDY    28  19  69 W9        29.51S
MENOMINEE      CLOUDY    28  18  64 W8        29.53R
SAWYER-GWINN   LGT SNOW  25  19  80 W8        29.46S
$$
MIZ001>003-009>011-084-040000-
WESTERN UPPER MICHIGAN

CITY           SKY/WX    TMP DP  RH WIND       PRES   REMARKS
IRON MOUNTAIN  CLOUDY    27  17  66 W13       29.48S
HOUGHTON       LGT SNOW  24  20  84 W25G35    29.44F FOG
COPPER HARBOR    N/A     26  19  74 NW9G17    29.44F
IRONWOOD       CLOUDY    25  21  86 W18G26    29.53R
$$

ABBREVIATIONS USED IN REMARKS
   TC - TEMPERATURE IN CELSIUS
  WCI - WIND CHILL INDEX
   HX - HEAT INDEX
  VSB - VISIBILITY




USA.gov is the U.S. government's official web portal to all federal, state and local government web resources and services.